Time,TemperatureF,DewpointF,PressureIn,WindDirection,WindDirectionDegrees,WindSpeedMPH,WindSpeedGustMPH,Humidity,HourlyPrecipIn,Conditions,Clouds,dailyrainin,SoftwareType,DateUTC
2017-02-22 00:08:00,56.0,56.0,29.92,ESE,107,0.0,1.0,100,-99.99,,,-99.99,,2017-02-22 05:08:00,
2017-02-22 00:28:00,57.0,57.0,29.91,ESE,107,0.0,2.0,100,-99.99,,,-99.99,,2017-02-22 05:28:00,
2017-02-22 00:50:00,57.0,57.0,29.90,ESE,107,0.0,2.0,100,-99.99,,,-99.99,,2017-02-22 05:50:00,
2017-02-22 01:08:00,57.0,57.0,29.91,ESE,107,0.0,3.0,100,-99.99,,,-99.99,,2017-02-22 06:08:00,
2017-02-22 01:27:00,57.0,57.0,29.90,ESE,109,0.0,6.0,100,-99.99,,,-99.99,,2017-02-22 06:27:00,
2017-02-22 02:02:00,57.0,57.0,29.89,ESE,109,0.0,2.0,100,-99.99,,,-99.99,,2017-02-22 07:02:00,
2017-02-22 02:18:00,57.0,57.0,29.89,ESE,109,0.0,2.0,100,-99.99,,,-99.99,,2017-02-22 07:18:00,
2017-02-22 02:39:00,57.0,57.0,29.88,ESE,109,0.0,5.0,100,-99.99,,,-99.99,,2017-02-22 07:39:00,
2017-02-22 03:02:00,57.0,57.0,29.88,ESE,110,0.0,6.0,100,-99.99,,,-99.99,,2017-02-22 08:02:00,
2017-02-22 03:28:00,57.0,57.0,29.87,ESE,110,1.0,2.0,100,-99.99,,,-99.99,,2017-02-22 08:28:00,
2017-02-22 03:48:00,57.0,57.0,29.87,ESE,110,0.0,1.0,100,-99.99,,,-99.99,,2017-02-22 08:48:00,
2017-02-22 04:08:00,57.0,57.0,29.86,ESE,110,0.0,3.0,100,-99.99,,,-99.99,,2017-02-22 09:08:00,
2017-02-22 04:27:00,57.0,57.0,29.87,ESE,110,0.0,5.0,100,-99.99,,,-99.99,,2017-02-22 09:27:00,
2017-02-22 04:48:00,57.0,57.0,29.87,ESE,110,0.0,2.0,100,-99.99,,,-99.99,,2017-02-22 09:48:00,
2017-02-22 05:08:00,57.0,57.0,29.86,ESE,110,0.0,5.0,100,-99.99,,,-99.99,,2017-02-22 10:08:00,
2017-02-22 05:28:00,57.0,57.0,29.87,ESE,110,0.0,3.0,100,-99.99,,,-99.99,,2017-02-22 10:28:00,
2017-02-22 06:00:00,57.0,57.0,29.87,ESE,110,0.0,-999.0,100,-99.99,,,-99.99,,2017-02-22 11:00:00,
2017-02-22 06:17:00,57.0,57.0,29.87,ESE,110,0.0,-999.0,100,-99.99,,,-99.99,,2017-02-22 11:17:00,
2017-02-22 07:08:00,57.0,57.0,29.88,ESE,116,0.0,5.0,100,-99.99,,,-99.99,,2017-02-22 12:08:00,
2017-02-22 07:28:00,57.0,57.0,29.88,ESE,116,0.0,1.0,100,-99.99,,,-99.99,,2017-02-22 12:28:00,
2017-02-22 08:17:00,57.0,57.0,29.89,ESE,116,0.0,-999.0,100,-99.99,,,-99.99,,2017-02-22 13:17:00,
2017-02-22 08:40:00,57.0,57.0,29.89,ESE,116,0.0,1.0,100,-99.99,,,-99.99,,2017-02-22 13:40:00,
2017-02-22 09:09:00,57.0,57.0,29.89,ESE,116,0.0,1.0,100,-99.99,,,-99.99,,2017-02-22 14:09:00,
2017-02-22 09:28:00,57.0,57.0,29.89,ESE,116,0.0,1.0,100,-99.99,,,-99.99,,2017-02-22 14:28:00,
2017-02-22 10:09:00,57.0,57.0,29.88,ESE,117,0.0,2.0,100,-99.99,,,-99.99,,2017-02-22 15:09:00,
2017-02-22 10:27:00,57.0,57.0,29.88,ESE,120,0.0,4.0,100,-99.99,,,-99.99,,2017-02-22 15:27:00,
2017-02-22 10:46:00,57.0,57.0,29.88,ESE,120,0.0,4.0,100,-99.99,,,-99.99,,2017-02-22 15:46:00,
2017-02-22 10:59:00,57.0,57.0,29.87,ESE,117,0.0,3.0,100,-99.99,,,-99.99,,2017-02-22 15:59:00,
2017-02-22 11:16:00,58.0,58.0,29.87,ESE,117,0.0,3.0,100,-99.99,,,-99.99,,2017-02-22 16:16:00,
2017-02-22 11:30:00,58.0,58.0,29.86,ESE,117,0.0,-999.0,100,-99.99,,,-99.99,,2017-02-22 16:30:00,
2017-02-22 11:47:00,58.0,58.0,29.86,SE,127,1.0,7.0,100,-99.99,,,-99.99,,2017-02-22 16:47:00,
2017-02-22 12:09:00,59.0,59.0,29.85,SE,140,0.0,10.0,100,-99.99,,,-99.99,,2017-02-22 17:09:00,
2017-02-22 12:27:00,59.0,59.0,29.85,SE,143,-999.9,-999.0,100,-99.99,,,-99.99,,2017-02-22 17:27:00,
2017-02-22 12:48:00,60.0,60.0,29.85,SSE,151,0.0,7.0,100,-99.99,,,-99.99,,2017-02-22 17:48:00,
2017-02-22 13:08:00,60.0,60.0,29.83,SSE,157,1.0,6.0,99,-99.99,,,-99.99,,2017-02-22 18:08:00,
2017-02-22 13:30:00,60.0,59.0,29.83,SSE,157,1.0,3.0,98,-99.99,,,-99.99,,2017-02-22 18:30:00,
2017-02-22 13:49:00,61.0,60.0,29.82,SSE,157,0.0,3.0,97,-99.99,,,-99.99,,2017-02-22 18:49:00,
2017-02-22 14:09:00,62.0,60.0,29.80,SE,143,0.0,-999.0,92,-99.99,,,-99.99,,2017-02-22 19:09:00,
2017-02-22 14:59:00,64.0,60.0,29.79,SSW,200,0.0,6.0,87,-99.99,,,-99.99,,2017-02-22 19:59:00,
2017-02-22 15:18:00,65.0,61.0,29.78,SSE,161,1.0,6.0,86,-99.99,,,-99.99,,2017-02-22 20:18:00,